This demonstration page uses our WeatherBlox Daily Observations layout. Learn more.

Left ArrowRight Arrow

39.95238, -75.16362

Hourly Observations for April 10, 2022

Temp ( °F °C ) Dew Point ( °F °C ) Humidity (%) Winds ( mph kmh ) Pressure ( in mb ) Visibility ( mi km ) Precip ( " mm )
12:54 am 00:54 Cloudy 50 10 33 0.6 52 52 WNW 10 17 29.72 1007 10 16 0.00 0.00
1:54 am 01:54 Mostly Cloudy 49 9.4 33 0.6 55 55 WNW 13 20 29.72 1007 10 16 0.00 0.00
2:54 am 02:54 Partly Cloudy 47 8.3 33 0.6 59 59 WNW 14 22 29.73 1007 10 16 0.00 0.00
3:54 am 03:54 Mostly Cloudy 47 8.3 33 0.6 59 59 WNW 9 15 29.74 1007 10 16 0.00 0.00
4:54 am 04:54 Cloudy 48 8.9 31 -0.6 52 52 WNW 13 20 29.76 1008 10 16 0.00 0.00
5:54 am 05:54 Partly Cloudy 46 7.8 26 -3.3 46 46 NW 16 26 29.79 1009 10 16 0.00 0.00
6:54 am 06:54 Mostly Sunny 44 6.7 25 -3.9 47 47 WNW 12 19 29.82 1010 10 16 0.00 0.00
7:54 am 07:54 Mostly Sunny 45 7.2 25 -3.9 46 46 WNW 13 20 29.84 1011 10 16 0.00 0.00
8:54 am 08:54 Partly Cloudy 46 7.8 25 -3.9 44 44 WNW 16 26 29.85 1011 10 16 0.00 0.00
9:54 am 09:54 Partly Cloudy 48 8.9 26 -3.3 42 42 WNW 16 26 29.85 1011 10 16 0.00 0.00
10:54 am 10:54 Mostly Cloudy 50 10 25 -3.9 38 38 WNW 17 28 29.86 1011 10 16 0.00 0.00
11:54 am 11:54 Cloudy 49 9.4 26 -3.3 41 41 WNW 20 31 29.86 1011 10 16 0.00 0.00
12:54 pm 12:54 Mostly Cloudy 51 10.6 27 -2.8 39 39 WNW 15 24 29.85 1011 10 16 0.00 0.00
1:54 pm 13:54 Cloudy with Light Rain 50 10 26 -3.3 39 39 NW 17 28 29.84 1011 10 16 0.00 0.00
2:54 pm 14:54 Mostly Cloudy 50 10 28 -2.2 43 43 W 22 35 29.85 1011 10 16 0.00 0.00
3:54 pm 15:54 Mostly Cloudy 51 10.6 29 -1.7 43 43 W 21 33 29.85 1011 10 16 0.00 0.00
4:54 pm 16:54 Mostly Cloudy 52 11.1 28 -2.2 40 40 NW 18 30 29.87 1012 10 16 0.00 0.00
5:54 pm 17:54 Mostly Cloudy N/A N/A N/A undefined N/A 29.89 1012 10 16 0.00 0.00
6:54 pm 18:54 Mostly Cloudy 51 10.6 25 -3.9 36 36 NW 17 28 29.91 1013 10 16 0.00 0.00
7:54 pm 19:54 Mostly Cloudy 48 8.9 25 -3.9 41 41 NW 15 24 29.93 1014 10 16 0.00 0.00
8:54 pm 20:54 Mostly Cloudy 47 8.3 26 -3.3 44 44 WNW 9 15 29.97 1015 10 16 0.00 0.00
9:54 pm 21:54 Cloudy 47 8.3 26 -3.3 44 44 WNW 8 13 30.00 1016 10 16 0.00 0.00
10:16 pm 22:16 Cloudy 46 7.8 26 -3.3 46 46 W 8 13 30.01 1016 10 16 0.00 0.00
10:54 pm 22:54 Mostly Cloudy 45 7.2 26 -3.3 48 48 WNW 8 13 30.01 1016 10 16 0.00 0.00
11:54 pm 23:54 Partly Cloudy 46 7.8 26 -3.3 46 46 WNW 8 13 30.04 1017 10 16 0.00 0.00

Powered by AerisWeather